Wetterdaten: aktuell Dienstag, 19.02.2019 03:44
Datum Zeit Temp. I. Temp. 2m Temp. 5cm Feuchte I. Feuchte 2m Luftdruck Regen Wind Richtung Richtung Taupunkt Windchill Windben
19.02.2019 03:44 24,0 C -1,5 C -2,2 C 36 % 79 % 1021,4 hPa 0,0 l/m 2,6 km/h (1 Bft) NO 45 -4,7 C -1,5 C 3,5 km/h (1 Bft)
19.02.2019 03:42 24,0 C -1,5 C -2,2 C 36 % 79 % 1021,4 hPa 0,0 l/m 2,7 km/h (1 Bft) O 90 -4,7 C -1,5 C 3,9 km/h (1 Bft)
19.02.2019 03:40 24,0 C -1,5 C -2,4 C 36 % 79 % 1021,4 hPa 0,0 l/m 2,4 km/h (1 Bft) SO 135 -4,7 C -1,5 C 4,2 km/h (1 Bft)
19.02.2019 03:38 24,0 C -1,6 C -2,4 C 36 % 78 % 1021,4 hPa 0,0 l/m 1,9 km/h (1 Bft) O 90 -4,9 C -1,6 C 2,5 km/h (1 Bft)
19.02.2019 03:36 24,0 C -1,8 C -2,4 C 36 % 78 % 1021,4 hPa 0,0 l/m 1,6 km/h (1 Bft) O 90 -5,1 C -1,8 C 4,2 km/h (1 Bft)
19.02.2019 03:34 23,9 C -1,8 C -2,4 C 36 % 78 % 1021,4 hPa 0,0 l/m 1,3 km/h (1 Bft) O 90 -5,1 C -1,8 C 3,9 km/h (1 Bft)
19.02.2019 03:32 23,9 C -1,8 C -2,5 C 36 % 78 % 1021,4 hPa 0,0 l/m 1,0 km/h (0 Bft) O-SO 112 -5,1 C -1,8 C 3,5 km/h (1 Bft)
19.02.2019 03:30 23,9 C -1,8 C -2,6 C 36 % 78 % 1021,4 hPa 0,0 l/m 0,6 km/h (0 Bft) O 90 -5,1 C -1,8 C 0,0 km/h (0 Bft)
19.02.2019 03:28 23,9 C -1,8 C -2,6 C 36 % 78 % 1021,4 hPa 0,0 l/m 0,6 km/h (0 Bft) O-NO 67 -5,1 C -1,8 C 0,0 km/h (0 Bft)
19.02.2019 03:26 23,8 C -1,8 C -2,6 C 36 % 78 % 1021,4 hPa 0,0 l/m 0,8 km/h (0 Bft) O 90 -5,1 C -1,8 C 0,0 km/h (0 Bft)
19.02.2019 03:24 23,8 C -1,8 C -2,6 C 36 % 78 % 1021,2 hPa 0,0 l/m 0,6 km/h (0 Bft) O-NO 67 -5,1 C -1,8 C 2,3 km/h (1 Bft)
19.02.2019 03:22 23,8 C -1,8 C -2,5 C 36 % 78 % 1021,2 hPa 0,0 l/m 0,6 km/h (0 Bft) O 90 -5,1 C -1,8 C 5,0 km/h (1 Bft)
19.02.2019 03:20 23,8 C -1,8 C -2,5 C 36 % 78 % 1021,2 hPa 0,0 l/m 0,5 km/h (0 Bft) N-NO 22 -5,1 C -1,8 C 0,0 km/h (0 Bft)
19.02.2019 03:18 23,8 C -1,6 C -2,5 C 36 % 78 % 1021,2 hPa 0,0 l/m 0,6 km/h (0 Bft) N 360 -4,9 C -1,6 C 0,0 km/h (0 Bft)
19.02.2019 03:16 23,8 C -1,6 C -2,5 C 36 % 78 % 1021,2 hPa 0,0 l/m 0,8 km/h (0 Bft) N-NO 22 -4,9 C -1,6 C 2,7 km/h (1 Bft)
19.02.2019 03:14 23,8 C -1,6 C -2,5 C 36 % 78 % 1021,2 hPa 0,0 l/m 0,6 km/h (0 Bft) N-NO 22 -4,9 C -1,6 C 0,0 km/h (0 Bft)
19.02.2019 03:12 23,7 C -1,6 C -2,5 C 36 % 78 % 1021,2 hPa 0,0 l/m 1,9 km/h (1 Bft) O 90 -4,9 C -1,6 C 3,3 km/h (1 Bft)
19.02.2019 03:10 23,7 C -1,9 C -2,5 C 36 % 78 % 1021,2 hPa 0,0 l/m 1,9 km/h (1 Bft) O 90 -5,2 C -1,9 C 3,3 km/h (1 Bft)
19.02.2019 03:08 23,7 C -1,9 C -2,5 C 36 % 78 % 1021,2 hPa 0,0 l/m 1,9 km/h (1 Bft) O 90 -5,2 C -1,9 C 3,3 km/h (1 Bft)
19.02.2019 03:06 23,7 C -1,9 C -2,5 C 36 % 78 % 1021,2 hPa 0,0 l/m 1,9 km/h (1 Bft) O 90 -5,2 C -1,9 C 3,3 km/h (1 Bft)
19.02.2019 03:04 23,6 C -1,9 C -2,5 C 36 % 78 % 1021,2 hPa 0,0 l/m 1,9 km/h (1 Bft) O 90 -5,2 C -1,9 C 3,3 km/h (1 Bft)
19.02.2019 03:02 23,6 C -1,9 C -2,5 C 36 % 78 % 1021,2 hPa 0,0 l/m 1,9 km/h (1 Bft) O 90 -5,2 C -1,9 C 2,5 km/h (1 Bft)
19.02.2019 03:00 23,6 C -1,9 C -2,5 C 36 % 78 % 1021,2 hPa 0,0 l/m 2,1 km/h (1 Bft) O 90 -5,2 C -1,9 C 3,7 km/h (1 Bft)
19.02.2019 02:58 23,6 C -1,9 C -2,5 C 36 % 78 % 1021,2 hPa 0,0 l/m 2,4 km/h (1 Bft) O-SO 112 -5,2 C -1,9 C 2,3 km/h (1 Bft)
19.02.2019 02:56 23,6 C -2,0 C -2,5 C 36 % 78 % 1021,2 hPa 0,0 l/m 2,3 km/h (1 Bft) O-NO 67 -5,3 C -2,0 C 3,1 km/h (1 Bft)
19.02.2019 02:54 23,6 C -2,0 C -2,5 C 36 % 78 % 1021,2 hPa 0,0 l/m 1,8 km/h (1 Bft) O 90 -5,3 C -2,0 C 2,9 km/h (1 Bft)
19.02.2019 02:52 23,6 C -2,0 C -2,5 C 36 % 78 % 1021,2 hPa 0,0 l/m 1,3 km/h (1 Bft) O-SO 112 -5,3 C -2,0 C 4,1 km/h (1 Bft)
19.02.2019 02:50 23,6 C -2,0 C -2,5 C 36 % 78 % 1021,2 hPa 0,0 l/m 0,8 km/h (0 Bft) O-SO 112 -5,3 C -2,0 C 4,1 km/h (1 Bft)
19.02.2019 02:48 23,5 C -2,0 C -2,5 C 36 % 78 % 1021,2 hPa 0,0 l/m 0,3 km/h (0 Bft) SO 135 -5,3 C -2,0 C 2,3 km/h (1 Bft)
19.02.2019 02:46 23,5 C -2,0 C -2,5 C 36 % 77 % 1021,2 hPa 0,0 l/m 0,0 km/h (0 Bft) O 90 -5,5 C -2,0 C 0,0 km/h (0 Bft)
19.02.2019 02:44 23,5 C -2,0 C -2,5 C 36 % 77 % 1021,0 hPa 0,0 l/m 0,0 km/h (0 Bft) N-NO 22 -5,5 C -2,0 C 0,0 km/h (0 Bft)
19.02.2019 02:42 23,5 C -2,0 C -2,5 C 36 % 77 % 1021,0 hPa 0,0 l/m 0,2 km/h (0 Bft) N-NO 22 -5,5 C -2,0 C 0,0 km/h (0 Bft)
19.02.2019 02:40 23,5 C -2,0 C -2,5 C 36 % 77 % 1021,0 hPa 0,0 l/m 0,2 km/h (0 Bft) N-NO 22 -5,5 C -2,0 C 0,0 km/h (0 Bft)
19.02.2019 02:38 23,5 C -2,0 C -2,5 C 36 % 77 % 1021,0 hPa 0,0 l/m 0,2 km/h (0 Bft) N-NO 22 -5,5 C -2,0 C 0,0 km/h (0 Bft)
19.02.2019 02:36 23,5 C -2,0 C -2,4 C 36 % 77 % 1021,0 hPa 0,0 l/m 0,2 km/h (0 Bft) NO 45 -5,5 C -2,0 C 0,0 km/h (0 Bft)
19.02.2019 02:34 23,4 C -2,0 C -2,4 C 36 % 77 % 1021,0 hPa 0,0 l/m 0,2 km/h (0 Bft) NO 45 -5,5 C -2,0 C 0,0 km/h (0 Bft)
19.02.2019 02:32 23,4 C -2,0 C -2,5 C 36 % 77 % 1021,0 hPa 0,0 l/m 0,2 km/h (0 Bft) O 90 -5,5 C -2,0 C 2,3 km/h (1 Bft)
19.02.2019 02:30 23,4 C -2,0 C -2,5 C 36 % 77 % 1021,0 hPa 0,0 l/m 0,0 km/h (0 Bft) O 90 -5,5 C -2,0 C 0,0 km/h (0 Bft)
19.02.2019 02:28 23,4 C -2,0 C -2,5 C 36 % 77 % 1021,0 hPa 0,0 l/m 0,0 km/h (0 Bft) NO 45 -5,5 C -2,0 C 0,0 km/h (0 Bft)
19.02.2019 02:26 23,4 C -2,0 C -2,5 C 36 % 77 % 1021,0 hPa 0,0 l/m 0,0 km/h (0 Bft) NO 45 -5,5 C -2,0 C 0,0 km/h (0 Bft)
19.02.2019 02:24 23,4 C -2,0 C -2,5 C 36 % 77 % 1021,0 hPa 0,0 l/m 0,2 km/h (0 Bft) NO 45 -5,5 C -2,0 C 0,0 km/h (0 Bft)
19.02.2019 02:22 23,4 C -2,0 C -2,4 C 36 % 77 % 1021,0 hPa 0,0 l/m 0,2 km/h (0 Bft) NO 45 -5,5 C -2,0 C 0,0 km/h (0 Bft)
19.02.2019 02:20 23,4 C -2,0 C -2,5 C 36 % 77 % 1021,0 hPa 0,0 l/m 0,2 km/h (0 Bft) NO 45 -5,5 C -2,0 C 0,0 km/h (0 Bft)
19.02.2019 02:18 23,4 C -1,9 C -2,5 C 36 % 77 % 1021,0 hPa 0,0 l/m 0,2 km/h (0 Bft) NO 45 -5,4 C -1,9 C 0,0 km/h (0 Bft)
19.02.2019 02:16 23,4 C -1,9 C -2,4 C 36 % 77 % 1021,0 hPa 0,0 l/m 0,3 km/h (0 Bft) NO 45 -5,4 C -1,9 C 0,0 km/h (0 Bft)
19.02.2019 02:14 23,4 C -1,9 C -2,4 C 36 % 77 % 1021,0 hPa 0,0 l/m 0,2 km/h (0 Bft) SO 135 -5,4 C -1,9 C 0,0 km/h (0 Bft)
19.02.2019 02:12 23,4 C -2,0 C -2,4 C 36 % 77 % 1021,0 hPa 0,0 l/m 0,2 km/h (0 Bft) SO 135 -5,5 C -2,0 C 0,0 km/h (0 Bft)
19.02.2019 02:10 23,4 C -2,0 C -2,2 C 36 % 77 % 1021,0 hPa 0,0 l/m 0,2 km/h (0 Bft) S 180 -5,5 C -2,0 C 0,0 km/h (0 Bft)
19.02.2019 02:08 23,4 C -2,0 C -2,2 C 36 % 77 % 1021,0 hPa 0,0 l/m 0,2 km/h (0 Bft) S 180 -5,5 C -2,0 C 2,7 km/h (1 Bft)
19.02.2019 02:06 23,4 C -2,0 C -2,2 C 36 % 77 % 1021,0 hPa 0,0 l/m 0,0 km/h (0 Bft) S-SO 157 -5,5 C -2,0 C 0,0 km/h (0 Bft)
19.02.2019 02:04 23,5 C -2,0 C -2,2 C 37 % 77 % 1021,1 hPa 0,0 l/m 0,0 km/h (0 Bft) S 180 -5,5 C -2,0 C 0,0 km/h (0 Bft)
19.02.2019 02:02 23,5 C -1,9 C -2,2 C 36 % 77 % 1021,1 hPa 0,0 l/m 0,2 km/h (0 Bft) SW 225 -5,4 C -1,9 C 0,0 km/h (0 Bft)
19.02.2019 02:00 23,5 C -1,9 C -2,2 C 36 % 77 % 1021,1 hPa 0,0 l/m 0,2 km/h (0 Bft) SW 225 -5,4 C -1,9 C 0,0 km/h (0 Bft)
19.02.2019 01:58 23,5 C -1,9 C -2,2 C 36 % 77 % 1021,1 hPa 0,0 l/m 0,2 km/h (0 Bft) SW 225 -5,4 C -1,9 C 0,0 km/h (0 Bft)
19.02.2019 01:56 23,5 C -1,9 C -2,2 C 36 % 77 % 1021,1 hPa 0,0 l/m 0,2 km/h (0 Bft) W 270 -5,4 C -1,9 C 0,0 km/h (0 Bft)
19.02.2019 01:54 23,5 C -1,9 C -2,4 C 36 % 77 % 1021,1 hPa 0,0 l/m 0,2 km/h (0 Bft) W 270 -5,4 C -1,9 C 0,0 km/h (0 Bft)
19.02.2019 01:52 23,5 C -1,8 C -2,4 C 36 % 77 % 1021,1 hPa 0,0 l/m 0,0 km/h (0 Bft) W-NW 292 -5,3 C -1,8 C 1,9 km/h (1 Bft)
19.02.2019 01:50 23,5 C -1,8 C -2,5 C 36 % 77 % 1021,1 hPa 0,0 l/m 0,0 km/h (0 Bft) N-NO 22 -5,3 C -1,8 C 0,0 km/h (0 Bft)
19.02.2019 01:48 23,6 C -1,8 C -2,4 C 36 % 77 % 1021,1 hPa 0,0 l/m 0,0 km/h (0 Bft) N-NO 22 -5,3 C -1,8 C 0,0 km/h (0 Bft)
19.02.2019 01:46 23,6 C -1,6 C -2,4 C 37 % 77 % 1021,1 hPa 0,0 l/m 0,0 km/h (0 Bft) N-NO 22 -5,1 C -1,6 C 0,0 km/h (0 Bft)
19.02.2019 01:44 23,6 C -1,6 C -2,4 C 37 % 77 % 1021,0 hPa 0,0 l/m 0,0 km/h (0 Bft) N-NO 22 -5,1 C -1,6 C 0,0 km/h (0 Bft)
19.02.2019 01:42 23,6 C -1,5 C -2,2 C 36 % 77 % 1021,0 hPa 0,0 l/m 0,3 km/h (0 Bft) N-NO 22 -5,0 C -1,5 C 0,0 km/h (0 Bft)
19.02.2019 01:40 23,6 C -1,5 C -2,2 C 36 % 77 % 1021,0 hPa 0,0 l/m 0,8 km/h (0 Bft) N-NO 22 -5,0 C -1,5 C 0,0 km/h (0 Bft)
19.02.2019 01:38 23,6 C -1,5 C -2,3 C 36 % 77 % 1021,0 hPa 0,0 l/m 1,0 km/h (0 Bft) N-NO 22 -5,0 C -1,5 C 0,0 km/h (0 Bft)
19.02.2019 01:36 23,6 C -1,4 C -2,1 C 36 % 77 % 1021,0 hPa 0,0 l/m 1,3 km/h (1 Bft) N-NO 22 -4,9 C -1,4 C 0,0 km/h (0 Bft)
19.02.2019 01:34 23,6 C -1,2 C -2,1 C 36 % 77 % 1021,0 hPa 0,0 l/m 1,4 km/h (1 Bft) N-NO 22 -4,7 C -1,2 C 0,0 km/h (0 Bft)
19.02.2019 01:32 23,6 C -1,2 C -2,1 C 36 % 77 % 1021,0 hPa 0,0 l/m 1,4 km/h (1 Bft) NO 45 -4,7 C -1,2 C 3,5 km/h (1 Bft)
19.02.2019 01:30 23,7 C -1,2 C -2,1 C 36 % 77 % 1021,0 hPa 0,0 l/m 1,0 km/h (0 Bft) O-NO 67 -4,7 C -1,2 C 2,9 km/h (1 Bft)
19.02.2019 01:28 23,7 C -1,4 C -2,1 C 36 % 77 % 1021,0 hPa 0,0 l/m 0,6 km/h (0 Bft) NO 45 -4,9 C -1,4 C 2,9 km/h (1 Bft)
19.02.2019 01:26 23,7 C -1,4 C -2,2 C 37 % 77 % 1021,0 hPa 0,0 l/m 0,5 km/h (0 Bft) O-NO 67 -4,9 C -1,4 C 2,9 km/h (1 Bft)
19.02.2019 01:24 23,7 C -1,4 C -2,2 C 37 % 77 % 1021,2 hPa 0,0 l/m 0,0 km/h (0 Bft) O 90 -4,9 C -1,4 C 0,0 km/h (0 Bft)
19.02.2019 01:22 23,7 C -1,5 C -2,2 C 37 % 77 % 1021,2 hPa 0,0 l/m 0,0 km/h (0 Bft) O 90 -5,0 C -1,5 C 0,0 km/h (0 Bft)
19.02.2019 01:20 23,7 C -1,5 C -2,2 C 37 % 77 % 1021,2 hPa 0,0 l/m 0,0 km/h (0 Bft) O-SO 112 -5,0 C -1,5 C 0,0 km/h (0 Bft)
19.02.2019 01:18 23,7 C -1,5 C -2,2 C 37 % 77 % 1021,2 hPa 0,0 l/m 0,0 km/h (0 Bft) O 90 -5,0 C -1,5 C 0,0 km/h (0 Bft)
19.02.2019 01:16 23,7 C -1,6 C -2,2 C 37 % 77 % 1021,2 hPa 0,0 l/m 0,0 km/h (0 Bft) O-SO 112 -5,1 C -1,6 C 0,0 km/h (0 Bft)
19.02.2019 01:14 23,8 C -1,6 C -2,2 C 37 % 77 % 1021,2 hPa 0,0 l/m 0,0 km/h (0 Bft) O-SO 112 -5,1 C -1,6 C 0,0 km/h (0 Bft)
19.02.2019 01:12 23,8 C -1,5 C -2,2 C 37 % 77 % 1021,2 hPa 0,0 l/m 0,0 km/h (0 Bft) O-SO 112 -5,0 C -1,5 C 0,0 km/h (0 Bft)
19.02.2019 01:10 23,8 C -1,5 C -2,2 C 37 % 76 % 1021,2 hPa 0,0 l/m 0,0 km/h (0 Bft) O-SO 112 -5,2 C -1,5 C 0,0 km/h (0 Bft)
19.02.2019 01:08 23,8 C -1,5 C -2,2 C 37 % 76 % 1021,2 hPa 0,0 l/m 0,0 km/h (0 Bft) O-SO 112 -5,2 C -1,5 C 0,0 km/h (0 Bft)
19.02.2019 01:06 23,8 C -1,5 C -2,2 C 37 % 76 % 1021,2 hPa 0,0 l/m 0,0 km/h (0 Bft) O-SO 112 -5,2 C -1,5 C 0,0 km/h (0 Bft)
19.02.2019 01:04 23,8 C -1,5 C -2,2 C 37 % 76 % 1021,2 hPa 0,0 l/m 0,0 km/h (0 Bft) O 90 -5,2 C -1,5 C 0,0 km/h (0 Bft)
19.02.2019 01:02 23,8 C -1,6 C -2,2 C 37 % 76 % 1021,2 hPa 0,0 l/m 0,0 km/h (0 Bft) O 90 -5,3 C -1,6 C 0,0 km/h (0 Bft)
19.02.2019 01:00 23,9 C -1,6 C -2,2 C 37 % 76 % 1021,2 hPa 0,0 l/m 0,0 km/h (0 Bft) S 180 -5,3 C -1,6 C 0,0 km/h (0 Bft)
19.02.2019 00:58 23,9 C -1,6 C -2,1 C 37 % 76 % 1021,2 hPa 0,0 l/m 0,0 km/h (0 Bft) S 180 -5,3 C -1,6 C 0,0 km/h (0 Bft)
19.02.2019 00:56 23,9 C -1,6 C -2,2 C 37 % 76 % 1021,2 hPa 0,0 l/m 0,0 km/h (0 Bft) S 180 -5,3 C -1,6 C 0,0 km/h (0 Bft)
19.02.2019 00:54 23,9 C -1,6 C -2,2 C 37 % 76 % 1021,2 hPa 0,0 l/m 0,0 km/h (0 Bft) S 180 -5,3 C -1,6 C 0,0 km/h (0 Bft)
19.02.2019 00:52 23,9 C -1,5 C -2,2 C 37 % 76 % 1021,2 hPa 0,0 l/m 0,0 km/h (0 Bft) S 180 -5,2 C -1,5 C 0,0 km/h (0 Bft)
19.02.2019 00:50 23,9 C -1,5 C -2,2 C 37 % 76 % 1021,2 hPa 0,0 l/m 0,0 km/h (0 Bft) S 180 -5,2 C -1,5 C 0,0 km/h (0 Bft)
19.02.2019 00:48 23,9 C -1,5 C -2,2 C 37 % 76 % 1021,2 hPa 0,0 l/m 0,0 km/h (0 Bft) SW 225 -5,2 C -1,5 C 0,0 km/h (0 Bft)
19.02.2019 00:46 23,9 C -1,5 C -2,1 C 37 % 76 % 1021,2 hPa 0,0 l/m 0,2 km/h (0 Bft) NW 315 -5,2 C -1,5 C 0,0 km/h (0 Bft)
19.02.2019 00:44 24,0 C -1,4 C -2,1 C 37 % 76 % 1021,4 hPa 0,0 l/m 0,3 km/h (0 Bft) N-NW 337 -5,1 C -1,4 C 0,0 km/h (0 Bft)
19.02.2019 00:42 24,0 C -1,4 C -2,1 C 37 % 76 % 1021,4 hPa 0,0 l/m 0,3 km/h (0 Bft) NW 315 -5,1 C -1,4 C 0,0 km/h (0 Bft)
19.02.2019 00:40 24,0 C -1,4 C -2,0 C 37 % 76 % 1021,4 hPa 0,0 l/m 0,3 km/h (0 Bft) S-SW 202 -5,1 C -1,4 C 0,0 km/h (0 Bft)
19.02.2019 00:38 24,0 C -1,4 C -2,0 C 37 % 76 % 1021,4 hPa 0,0 l/m 0,3 km/h (0 Bft) S-SW 202 -5,1 C -1,4 C 0,0 km/h (0 Bft)
19.02.2019 00:36 24,0 C -1,4 C -1,9 C 37 % 76 % 1021,4 hPa 0,0 l/m 0,5 km/h (0 Bft) S 180 -5,1 C -1,4 C 3,1 km/h (1 Bft)
19.02.2019 00:34 24,0 C -1,4 C -2,0 C 37 % 76 % 1021,4 hPa 0,0 l/m 0,8 km/h (0 Bft) S 180 -5,1 C -1,4 C 0,0 km/h (0 Bft)
19.02.2019 00:32 24,0 C -1,4 C -2,0 C 37 % 76 % 1021,4 hPa 0,0 l/m 1,0 km/h (0 Bft) S-SW 202 -5,1 C -1,4 C 0,0 km/h (0 Bft)
19.02.2019 00:30 24,0 C -1,4 C -2,1 C 37 % 76 % 1021,4 hPa 0,0 l/m 1,0 km/h (0 Bft) NW 315 -5,1 C -1,4 C 0,0 km/h (0 Bft)
19.02.2019 00:28 24,0 C -1,2 C -2,1 C 38 % 76 % 1021,4 hPa 0,0 l/m 1,0 km/h (0 Bft) NW 315 -4,9 C -1,2 C 0,0 km/h (0 Bft)
19.02.2019 00:26 24,0 C -1,2 C -2,1 C 38 % 76 % 1021,4 hPa 0,0 l/m 1,0 km/h (0 Bft) NW 315 -4,9 C -1,2 C 1,9 km/h (1 Bft)
19.02.2019 00:24 24,0 C -1,2 C -2,1 C 38 % 76 % 1021,1 hPa 0,0 l/m 0,6 km/h (0 Bft) NW 315 -4,9 C -1,2 C 3,1 km/h (1 Bft)
19.02.2019 00:22 24,0 C -1,1 C -2,1 C 38 % 76 % 1021,1 hPa 0,0 l/m 0,2 km/h (0 Bft) N-NW 337 -4,8 C -1,1 C 3,1 km/h (1 Bft)
19.02.2019 00:20 24,1 C -1,0 C -2,1 C 38 % 76 % 1021,1 hPa 0,0 l/m 0,0 km/h (0 Bft) NO 45 -4,7 C -1,0 C 0,0 km/h (0 Bft)
19.02.2019 00:18 24,1 C -1,0 C -2,1 C 38 % 76 % 1021,1 hPa 0,0 l/m 0,0 km/h (0 Bft) NO 45 -4,7 C -1,0 C 0,0 km/h (0 Bft)
19.02.2019 00:16 24,1 C -1,0 C -2,1 C 38 % 76 % 1021,1 hPa 0,0 l/m 0,0 km/h (0 Bft) NO 45 -4,7 C -1,0 C 0,0 km/h (0 Bft)
19.02.2019 00:14 24,1 C -1,0 C -2,1 C 38 % 76 % 1021,1 hPa 0,0 l/m 0,0 km/h (0 Bft) NO 45 -4,7 C -1,0 C 0,0 km/h (0 Bft)
19.02.2019 00:12 24,1 C -1,0 C -2,1 C 38 % 76 % 1021,1 hPa 0,0 l/m 0,0 km/h (0 Bft) O 90 -4,7 C -1,0 C 0,0 km/h (0 Bft)
19.02.2019 00:10 24,1 C -1,0 C -2,1 C 38 % 76 % 1021,1 hPa 0,0 l/m 0,0 km/h (0 Bft) O 90 -4,7 C -1,0 C 0,0 km/h (0 Bft)
19.02.2019 00:08 24,1 C -1,0 C -2,0 C 38 % 76 % 1021,1 hPa 0,0 l/m 0,0 km/h (0 Bft) O 90 -4,7 C -1,0 C 0,0 km/h (0 Bft)
19.02.2019 00:06 24,2 C -1,0 C -2,0 C 38 % 76 % 1021,1 hPa 0,0 l/m 0,0 km/h (0 Bft) O 90 -4,7 C -1,0 C 0,0 km/h (0 Bft)
19.02.2019 00:04 24,1 C -1,0 C -2,0 C 38 % 76 % 1021,4 hPa 0,0 l/m 0,0 km/h (0 Bft) O-SO 112 -4,7 C -1,0 C 0,0 km/h (0 Bft)
19.02.2019 00:02 24,2 C -1,0 C -2,0 C 38 % 76 % 1021,4 hPa 0,0 l/m 0,0 km/h (0 Bft) O 90 -4,7 C -1,0 C 0,0 km/h (0 Bft)
19.02.2019 00:00 24,2 C -1,0 C -2,0 C 38 % 76 % 1021,4 hPa 0,0 l/m 0,0 km/h (0 Bft) O-SO 112 -4,7 C -1,0 C 0,0 km/h (0 Bft)
_ Min-Zeit 02:06 02:04 03:24 01:28 00:00 01:26 - 00:00 - - 02:04 02:04 00:00
Minimum _ 23,4 C -2,0 C -2,6 C 36 % 76 % 1021,0 hPa - 0,0 km/h (0 Bft) - - -5,5 C -2,0 C 0,0 km/h (0 Bft)
_ Max-Zeit 00:00 00:00 00:36 00:00 03:40 00:00 00:00 03:42 - - 03:40 00:00 03:22
Maximum _ 24,2 C -1,0 C -1,9 C 38 % 79 % 1021,4 hPa 0,0 l/m 2,7 km/h
O (1 Bft)
- - -4,7 C -1,0 C 5,0 km/h
O (1 Bft)
Durchschnitt _ 23,7 C -1,6 C -2,3 C 37 % 77 % 1021,2 hPa #0,0 l/m 0,5 km/h (0 Bft) O - -5,1 C -1,6 C 1,0 km/h (0 Bft)